User: anonymous   Login
Location: Jabiru
(12.6667°S, 132.8333°E)
Time: 17:53:45
(UTC+09:30)
Language:

ISS - Orbit

View from above orbital plane
View from above orbital plane
View from above satellite
View from above satellite

Ground track
Ground track

The orbit data is extracted from the following two-line orbital elements,

1 25544U 98067A   19080.60877178  .00016717  00000-0  10270-3 0  9010
2 25544  51.6364  76.6109 0003736 128.5763 231.5724 15.52882187  1649
Epoch (UTC): 21 March 2019 14:36:37
Eccentricity: 0.0003736
inclination: 51.6364°
perigee height: 406 km
apogee height: 411 km
right ascension of ascending node: 76.6109°
argument of perigee: 128.5763°
revolutions per day: 15.52882187
mean anomaly at epoch: 231.5724°
orbit number at epoch: 164

The dashed part of the orbit path shows where the satellite is in the earth's shadow,  

DLR